Location: Unspecified
(0.0000°N, 0.0000°E)
Time: 20:05:22
(UTC+00:00)

STARLINK-34571 - Visible Passes

Search period start: 10 November 2025 00:00
Search period end: 20 November 2025 00:00
Orbit: 446 x 448 km, 53.2° (Epoch: 08 November)

Date Brightness Start Highest point End Pass type
(mag) Time Alt. Az. Time Alt. Az. Time Alt. Az.
14 Nov 5.9 19:39:09 10° NW 19:39:50 15° NW 19:39:50 15° NW visible
15 Nov 3.1 18:59:02 10° NW 19:02:32 83° WSW 19:05:24 15° SSE visible
16 Nov 3.3 18:18:58 10° NNW 18:22:22 49° NE 18:25:47 10° SE visible
17 Nov 6.9 19:18:28 10° WSW 19:18:57 10° SW 19:19:26 10° SW visible
18 Nov 6.3 18:35:50 10° W 18:38:19 18° SW 18:40:49 10° S visible
19 Nov 6.8 04:40:01 10° SE 04:41:02 11° SE 04:42:02 10° ESE visible
